Preview of NWS' New Version of Forecast
This preview is not operational and should not be used for support decisions.

Regional Weather Roundup (RWR)

Issued by National Weather Service (NWS)

                            
000
ASUS43 KDTX 162210
RWRMI 
MICHIGAN HOURLY REGIONAL WEATHER ROUNDUP
NATIONAL WEATHER SERVICE DETROIT/PONTIAC MI
500 PM EST SAT FEB 16 2019

NOTE: "FAIR" INDICATES FEW OR NO CLOUDS BELOW 12,000 FEET WITH NO
SIGNIFICANT WEATHER AND/OR OBSTRUCTION TO VISIBILITY.

MIZ047>049-052>055-059>063-066>070-074>076-081>083-162300-
SOUTHEAST LOWER MICHIGAN
  
CITY           SKY/WX    TMP DP  RH WIND       PRES   REMARKS
ADRIAN         CLOUDY    25  17  72 E9        30.08S WCI  15          
ALMA           FAIR      26  13  59 NE3       30.10S                  
ANN ARBOR      CLOUDY    26  16  65 N8        30.08S WCI  18          
BAD AXE        CLOUDY    23  16  75 N3        30.10F                  
CARO           FAIR      24  15  69 CALM      30.10F                  
DETROIT CITY   CLOUDY    26  15  63 NE6       30.09F WCI  19          
DETROIT        CLOUDY    26  14  60 NE6       30.09F WCI  19          
FLINT          CLOUDY    24  15  68 NE7       30.09F WCI  16          
GROSSE ILE     FLURRIES  26  19  75 NE3       30.09S                  
HILLSDALE      CLOUDY    25  16  68 NE5       30.05R WCI  19          
HOWELL         CLOUDY    25  15  66 E3        30.08S                  

CITY           SKY/WX    TMP DP  RH WIND       PRES   REMARKS
JACKSON        CLOUDY    25  18  74 NE7       30.06F WCI  17          
LAMBERTVILLE   CLOUDY    26  18  72 NE5       30.09S WCI  20          
LANSING        CLOUDY    24  15  68 NE6       30.09S WCI  17          
LAPEER         CLOUDY    25  15  66 NE7       30.09F WCI  17          
MASON          CLOUDY    26  17  67 E5        30.07F WCI  20          
MONROE         CLOUDY    26  22  85 SE3       30.09S                  
MT. CLEMENS    CLOUDY    26  18  73 NE8       30.09S WCI  17          
PONTIAC        CLOUDY    25  15  66 NE9       30.06S WCI  15          
PORT HOPE        N/A     23  14  68 W7        30.10F WCI  15          
PORT HURON     CLOUDY    27  16  63 NW7       30.10F WCI  19          
TRI CITIES     FAIR      24  15  68 SE6       30.10F WCI  17          
MIDLAND        FAIR      28  13  54 CALM      30.09F                  
TROY           CLOUDY    27  15  61 NE8       30.10F WCI  18          
SAGINAW HB     FAIR      23  16  74 E6        30.11S WCI  16          
$$
MIZ043>046-050>051-056>058-064>065-071>073-077>080-162300-
SOUTHWEST LOWER MICHIGAN
  
CITY           SKY/WX    TMP DP  RH WIND       PRES   REMARKS
BATTLE CREEK   CLOUDY    25  16  68 NE7       30.06F WCI  17          
BENTON HARBOR  CLOUDY    28  16  60 NE9       30.07R WCI  19          
BIG RAPIDS     FAIR      28  14  56 NE3       30.05F                  
COLDWATER      CLOUDY    26  18  73 N7        30.06F WCI  18          
FREMONT        FAIR      30  15  53 CALM      30.06F                  
HOLLAND        PTSUNNY   27  15  61 E7        30.08F WCI  19          
GRAND RAPIDS   FAIR      27  15  61 NE9       30.06F WCI  18          
IONIA          PTSUNNY   25  13  60 E7        30.07F WCI  18          
KALAMAZOO      CLOUDY    25  15  66 E7        30.06F WCI  17          
LUDINGTON      FAIR      28  15  58 N5        30.08F WCI  22          
MARSHALL       CLOUDY    25  18  74 E6        30.06F WCI  18          
MOUNT PLEASANT FAIR      28  12  51 N5        30.08F WCI  22          
MUSKEGON       FAIR      30  13  49 NE5       30.07F WCI  25          
SOUTH HAVEN    CLOUDY    28  17  63 E7        30.07R WCI  20          
$$
MIZ016>042-162300-
NORTHERN LOWER MICHIGAN
  
CITY           SKY/WX    TMP DP  RH WIND       PRES   REMARKS
ALPENA         FAIR      20  11  68 N10       30.12S WCI   9          
BEAVER ISLAND  CLOUDY    23  13  64 CALM      30.13F                  
CADILLAC       FAIR      22   9  57 N6        30.04F WCI  15          
CHARLEVOIX     CLOUDY    22  13  69 N6        30.16F WCI  15          
FRANKFORT      CLOUDY    25  15  67 N5        30.11F WCI  19          
GAYLORD        PTSUNNY   20   9  62 VRB5      30.07S WCI  13          
GRAYLING       FAIR      22  11  62 N6        30.06F WCI  14          
HARBOR SPRINGS FAIR      23  10  58 N7        30.13S WCI  14          
HOUGHTON LAKE  FAIR      24  10  55 N7        30.06F WCI  16          
MANISTEE       FAIR      30  16  56 N7        30.09F WCI  23          
OSCODA         MOCLDY    25  13  59 CALM      30.11S                  
PELLSTON       PTSUNNY   21  11  65 NW8       30.13F WCI  11          
ROGERS CITY    FAIR      21  13  71 N8        30.13S WCI  12          
TRAVERSE CITY  FLURRIES  25  14  63 N8        30.11F WCI  16          
$$
MIZ007>008-015-162300-
EASTERN UPPER MICHIGAN
  
CITY           SKY/WX    TMP DP  RH WIND       PRES   REMARKS
KINROSS        FLURRIES  18  10  73 N8        30.12F WCI   7          
MACKINAC ISLAN MOCLDY    21  15  76 W3        30.11F                  
NEWBERRY       CLOUDY    20  11  68 N8        30.12S HAZE    WCI  10  
S. S. MARIE    FAIR      19  10  68 NW9       30.13S WCI   8          
MUNISING         N/A     19  11  70 NW9       30.14F WCI   8          
$$
MIZ004>006-011>014-085-162300-
CENTRAL UPPER MICHIGAN
  
CITY           SKY/WX    TMP DP  RH WIND       PRES   REMARKS
MANISTIQUE     FLURRIES  22   8  55 N6        30.13S WCI  15          
ESCANABA       FAIR      24  12  60 NE8       30.14S WCI  15          
MENOMINEE      FAIR      22  12  65 E6        30.14F WCI  14          
SAWYER-GWINN   MOSUNNY   18  10  73 NE7       30.09F WCI   8          
$$
MIZ001>003-009>011-084-162300-
WESTERN UPPER MICHIGAN
  
CITY           SKY/WX    TMP DP  RH WIND       PRES   REMARKS
IRON MOUNTAIN  FAIR      22   7  52 CALM      30.07S                  
HOUGHTON       FAIR      18   4  54 CALM      30.10F                  
COPPER HARBOR    N/A     16   8  71 N8        30.16S WCI   5          
IRONWOOD       FAIR      21  11  65 NE7       30.09R WCI  12          
$$

ABBREVIATIONS USED IN REMARKS
   TC - TEMPERATURE IN CELSIUS
  WCI - WIND CHILL INDEX
   HX - HEAT INDEX
  VSB - VISIBILITY